EA8CHC Sevilla ES current weather conditions

sailwx.info

Wind from 292 at 0 knots gusting 3

Air temperature 23.9° C
Dewpoint 17.6° C

Last reported at 2016-Jun-29 02:37 UTC.
Time now 2016-Jun-29 03:48 UTC

Location: N 37°26' W 006°03'.
View on Google Maps.

See reports from other nearby stations

  
Tides and Currents Weather Stations Pressure Air Temp Water Temp Dewpoint Dewpoint Depression Visibility Wind Speed Wind Dir Waves Ship Positions
date/time (UTC)wind fromknots sea level pressurealtimeterstation pressurevisibilityair tempwater tempwave heightnotes
2016-Jun-29 02:37 292 0 gusting 3 23.9
2016-Jun-29 02:32 292 0 gusting 5 23.9
2016-Jun-29 02:27 292 1 gusting 5 23.3
2016-Jun-29 02:22 292 2 gusting 5 23.3
2016-Jun-29 02:17 292 3 gusting 5 23.3
2016-Jun-29 02:12 292 1 gusting 5 23.3
2016-Jun-29 02:07 292 0 gusting 5 23.3
2016-Jun-29 02:02 292 1 gusting 5 23.3
2016-Jun-29 01:57 292 2 gusting 5 23.3
2016-Jun-29 01:52 279 1 gusting 8 23.3
2016-Jun-29 01:47 296 2 gusting 8 23.3
2016-Jun-29 01:42 294 5 gusting 9 23.3
2016-Jun-29 01:37 271 5 gusting 9 23.3
2016-Jun-29 01:32 285 5 gusting 8 23.3
2016-Jun-29 01:27 293 5 gusting 8 23.9
2016-Jun-29 01:22 287 5 gusting 8 23.9
2016-Jun-29 01:17 269 5 gusting 8 23.9
2016-Jun-29 01:12 276 3 gusting 6 23.9
2016-Jun-29 01:07 279 2 gusting 6 23.9
2016-Jun-29 01:02 290 3 gusting 6 23.9
2016-Jun-29 00:57 311 3 gusting 6 23.9
2016-Jun-29 00:52 282 2 gusting 4 23.9
2016-Jun-29 00:47 274 1 gusting 4 23.9
2016-Jun-29 00:42 323 1 gusting 5 23.9
2016-Jun-29 00:37 290 1 gusting 5 23.9
2016-Jun-29 00:32 290 1 gusting 6 23.9
2016-Jun-29 00:27 322 0 gusting 6 23.9
2016-Jun-29 00:22 307 1 gusting 7 23.9
2016-Jun-29 00:17 307 2 gusting 7 23.9
2016-Jun-29 00:12 309 3 gusting 5 23.9
2016-Jun-29 00:07 333 3 gusting 5 24.4
2016-Jun-29 00:02 274 2 gusting 6 24.4
2016-Jun-28 23:57 311 1 gusting 6 24.4
2016-Jun-28 23:52 329 1 gusting 6 24.4
2016-Jun-28 23:47 301 1 gusting 6 24.4
2016-Jun-28 23:42 269 2 gusting 6 24.4
2016-Jun-28 23:37 297 2 gusting 6 24.4
2016-Jun-28 23:32 281 2 gusting 9 24.4
2016-Jun-28 23:27 275 4 gusting 9 24.4
2016-Jun-28 23:22 261 4 gusting 11 24.4
2016-Jun-28 23:17 262 3 gusting 11 24.4
2016-Jun-28 23:12 327 4 gusting 9 25.0
2016-Jun-28 23:07 272 4 gusting 9 25.0
2016-Jun-28 23:02 295 4 gusting 8 25.0
2016-Jun-28 22:57 298 3 gusting 8 25.0
2016-Jun-28 22:52 287 2 gusting 13 25.6
2016-Jun-28 22:47 340 3 gusting 13 25.6
2016-Jun-28 22:42 233 5 gusting 14 25.6
2016-Jun-28 22:37 202 6 gusting 14 25.6
2016-Jun-28 22:32 207 6 gusting 16 25.6
2016-Jun-28 22:27 237 7 gusting 16 25.6
2016-Jun-28 22:22 254 8 gusting 16 25.6
2016-Jun-28 22:17 240 8 gusting 16 25.6
2016-Jun-28 22:12 221 8 gusting 18 25.6
2016-Jun-28 22:07 240 8 gusting 18 25.6
2016-Jun-28 22:02 235 7 gusting 17 26.1
2016-Jun-28 21:57 291 7 gusting 17 26.1
2016-Jun-28 21:52 238 9 gusting 20 26.1
2016-Jun-28 21:47 238 9 gusting 20 26.1
2016-Jun-28 21:42 215 9 gusting 15 26.1
2016-Jun-28 21:37 222 8 gusting 15 26.1
2016-Jun-28 21:32 259 6 gusting 17 26.7
2016-Jun-28 21:27 306 6 gusting 17 26.7
2016-Jun-28 21:22 243 6 gusting 17 27.2
2016-Jun-28 21:17 252 7 gusting 17 27.2
2016-Jun-28 21:12 229 7 gusting 17 27.2
2016-Jun-28 21:07 265 7 gusting 17 27.2
2016-Jun-28 21:02 236 7 gusting 20 27.8
2016-Jun-28 20:57 242 8 gusting 20 27.8
2016-Jun-28 20:52 214 9 gusting 20 27.8
2016-Jun-28 20:47 217 10 gusting 20 27.8
2016-Jun-28 20:42 207 9 gusting 15 28.3
2016-Jun-28 20:37 228 8 gusting 15 28.3
2016-Jun-28 20:32 252 7 gusting 14 28.3
2016-Jun-28 20:27 259 7 gusting 14 28.3
2016-Jun-28 20:22 245 7 gusting 14 28.9
2016-Jun-28 20:17 300 6 gusting 14 28.9
2016-Jun-28 20:12 263 7 gusting 14 28.9
2016-Jun-28 20:07 267 7 gusting 14 28.9
2016-Jun-28 20:02 224 6 gusting 14 29.4
2016-Jun-28 19:57 267 8 gusting 14 29.4
2016-Jun-28 19:52 266 9 gusting 15 29.4
2016-Jun-28 19:47 248 9 gusting 15 30.0
2016-Jun-28 19:42 278 8 gusting 15 30.0
2016-Jun-28 19:37 242 7 gusting 15 30.6
2016-Jun-28 19:32 281 7 gusting 14 30.6
2016-Jun-28 19:27 252 8 gusting 14 31.1
2016-Jun-28 19:22 273 7 gusting 11 31.7
2016-Jun-28 19:17 216 7 gusting 11 31.7
2016-Jun-28 19:12 269 6 gusting 12 32.2
2016-Jun-28 19:07 271 6 gusting 12 32.2
2016-Jun-28 19:02 273 6 gusting 12 32.2
2016-Jun-28 18:57 275 6 gusting 12 32.2
2016-Jun-28 18:52 274 8 gusting 12 32.2
2016-Jun-28 18:47 296 8 gusting 12 32.2
2016-Jun-28 18:42 277 7 gusting 12 32.8
2016-Jun-28 18:37 269 7 gusting 12 32.8
2016-Jun-28 18:32 262 7 gusting 13 33.3
2016-Jun-28 18:27 272 7 gusting 13 33.3
2016-Jun-28 18:22 277 6 gusting 13 33.3
2016-Jun-28 18:17 281 6 gusting 12 33.3
2016-Jun-28 18:12 279 6 gusting 11 33.3
2016-Jun-28 18:07 261 6 gusting 11 33.3
2016-Jun-28 18:02 259 5 gusting 11 33.3
2016-Jun-28 17:57 278 5 gusting 11 33.9
2016-Jun-28 17:52 292 4 gusting 9 34.4
2016-Jun-28 17:47 230 5 gusting 9 34.4
2016-Jun-28 17:42 206 5 gusting 9 34.4
2016-Jun-28 17:37 267 5 gusting 9 35.0
2016-Jun-28 17:32 264 5 gusting 9 35.0
2016-Jun-28 17:27 279 4 gusting 9 35.0
2016-Jun-28 17:22 252 3 gusting 6 35.6
2016-Jun-28 17:17 248 2 gusting 6 35.6
2016-Jun-28 17:12 275 2 gusting 7 35.6
2016-Jun-28 17:07 235 2 gusting 7 35.6
2016-Jun-28 17:02 188 3 gusting 8 35.0
2016-Jun-28 16:57 232 2 gusting 8 35.0
2016-Jun-28 16:52 163 4 gusting 12 35.0
2016-Jun-28 16:47 217 5 gusting 12 35.0
2016-Jun-28 16:42 153 5 gusting 12 34.4
2016-Jun-28 16:37 186 5 gusting 12 34.4
2016-Jun-28 16:32 170 6 gusting 13 34.4
2016-Jun-28 16:27 168 6 gusting 13 34.4
2016-Jun-28 16:22 191 6 gusting 11 34.4
2016-Jun-28 16:17 181 6 gusting 11 34.4
2016-Jun-28 16:12 138 6 gusting 14 34.4
2016-Jun-28 16:07 201 6 gusting 14 34.4
2016-Jun-28 16:02 157 6 gusting 14 33.9
2016-Jun-28 15:57 192 7 gusting 14 33.3
2016-Jun-28 15:52 183 8 gusting 16 33.3
2016-Jun-28 15:47 180 8 gusting 16 32.8
2016-Jun-28 15:42 148 9 gusting 15 32.8
2016-Jun-28 15:37 171 8 gusting 15 32.8
2016-Jun-28 15:32 184 8 gusting 17 32.2
2016-Jun-28 15:27 171 8 gusting 17 32.2
2016-Jun-28 15:22 183 9 gusting 19 32.2
2016-Jun-28 15:17 180 11 gusting 19 31.7
2016-Jun-28 15:12 175 12 gusting 21 31.1
2016-Jun-28 15:07 176 12 gusting 21 30.6
2016-Jun-28 15:02 171 12 gusting 22 30.6
2016-Jun-28 14:57 142 12 gusting 22 30.6
2016-Jun-28 14:52 148 12 gusting 20 30.6
2016-Jun-28 14:47 139 11 gusting 20 31.1
2016-Jun-28 14:42 154 11 gusting 19 31.7
2016-Jun-28 14:37 152 12 gusting 19 31.7
2016-Jun-28 14:32 142 12 gusting 19 32.2
2016-Jun-28 14:27 136 11 gusting 19 34.4
2016-Jun-28 14:22 103 10 gusting 17 35.0
2016-Jun-28 14:17 095 9 gusting 17 35.0
2016-Jun-28 14:12 086 8 gusting 13 35.0
2016-Jun-28 14:07 076 6 gusting 13 34.4
2016-Jun-28 14:02 082 6 gusting 13 34.4
2016-Jun-28 13:57 069 6 gusting 13 34.4
2016-Jun-28 13:52 068 6 gusting 13 34.4
2016-Jun-28 13:47 071 8 gusting 13 34.4
2016-Jun-28 13:42 049 7 gusting 15 34.4
2016-Jun-28 13:37 062 6 gusting 15 34.4
2016-Jun-28 13:32 060 7 gusting 14 34.4
2016-Jun-28 13:27 059 6 gusting 14 34.4
2016-Jun-28 13:22 051 6 gusting 14 34.4
2016-Jun-28 13:17 054 7 gusting 14 34.4
2016-Jun-28 13:12 061 7 gusting 14 33.9
2016-Jun-28 13:07 018 6 gusting 14 33.9
2016-Jun-28 13:02 053 6 gusting 14 33.9
2016-Jun-28 12:57 065 6 gusting 14 33.3
2016-Jun-28 12:52 030 8 gusting 15 33.3
2016-Jun-28 12:47 053 9 gusting 15 33.3
2016-Jun-28 12:42 015 8 gusting 13 33.3
2016-Jun-28 12:37 051 6 gusting 13 33.3
2016-Jun-28 12:32 025 6 gusting 12 33.3
2016-Jun-28 12:27 355 6 gusting 12 33.3
2016-Jun-28 12:22 034 6 gusting 13 32.8
2016-Jun-28 12:17 071 6 gusting 13 32.2
2016-Jun-28 12:12 030 5 gusting 10 32.2
2016-Jun-28 12:07 051 5 gusting 10 32.2
2016-Jun-28 12:02 031 4 gusting 9 32.2
2016-Jun-28 11:57 082 4 gusting 9 32.2
2016-Jun-28 11:52 042 4 gusting 9 31.7
2016-Jun-28 11:47 070 4 gusting 9 31.7
2016-Jun-28 11:42 051 4 gusting 9 31.7
2016-Jun-28 11:37 098 4 gusting 9 31.7
2016-Jun-28 11:32 081 4 gusting 8 31.1
2016-Jun-28 11:27 068 5 gusting 8 31.1
2016-Jun-28 11:22 105 5 gusting 10 31.1
2016-Jun-28 11:17 100 4 gusting 10 31.1
2016-Jun-28 11:12 082 5 gusting 10 30.6
2016-Jun-28 11:07 078 5 gusting 10 30.6
2016-Jun-28 11:02 079 5 gusting 11 30.6
2016-Jun-28 10:57 115 5 gusting 11 30.6
2016-Jun-28 10:52 063 5 gusting 6 30.6
2016-Jun-28 10:47 097 4 gusting 6 30.6
2016-Jun-28 10:42 074 4 gusting 8 30.6
2016-Jun-28 10:37 054 3 gusting 8 30.6
2016-Jun-28 10:32 095 3 gusting 8 30.0
2016-Jun-28 10:27 073 4 gusting 8 30.0
2016-Jun-28 10:22 063 4 gusting 9 30.0
2016-Jun-28 10:17 066 3 gusting 9 29.4
2016-Jun-28 10:12 065 3 gusting 9 29.4
2016-Jun-28 10:07 067 4 gusting 9 28.9
2016-Jun-28 10:02 078 4 gusting 7 28.9
2016-Jun-28 09:57 075 4 gusting 7 28.9
2016-Jun-28 09:52 143 3 gusting 6 28.3
2016-Jun-28 09:47 111 2 gusting 6 28.3
2016-Jun-28 09:42 063 2 gusting 10 28.3
2016-Jun-28 09:37 103 3 gusting 10 28.3
2016-Jun-28 09:32 070 5 gusting 10 28.3
2016-Jun-28 09:27 100 5 gusting 10 28.3
2016-Jun-28 09:22 092 4 gusting 10 28.3
2016-Jun-28 09:17 050 4 gusting 10 28.3
2016-Jun-28 09:12 067 6 gusting 11 27.8
2016-Jun-28 09:07 054 6 gusting 11 27.8
2016-Jun-28 09:02 060 6 gusting 9 27.8
2016-Jun-28 08:57 044 5 gusting 9 27.8
2016-Jun-28 08:52 005 5 gusting 9 27.2
2016-Jun-28 08:47 046 4 gusting 9 27.2
2016-Jun-28 08:42 042 4 gusting 8 27.2
2016-Jun-28 08:37 26.7
2016-Jun-28 08:32 052 4 gusting 9 26.7
2016-Jun-28 08:27 055 4 gusting 9 26.1
2016-Jun-28 08:22 046 5 gusting 10 26.1
2016-Jun-28 08:17 040 5 gusting 10 26.1
2016-Jun-28 08:12 038 5 gusting 10 26.1
2016-Jun-28 08:07 005 5 gusting 10 26.1
2016-Jun-28 08:02 036 5 gusting 10 26.1
2016-Jun-28 07:57 028 4 gusting 10 25.6
2016-Jun-28 07:52 059 3 gusting 6 25.6
2016-Jun-28 07:47 064 2 gusting 6 25.0
2016-Jun-28 07:42 031 2 gusting 5 25.0
2016-Jun-28 07:37 037 2 gusting 5 24.4
2016-Jun-28 07:32 040 2 gusting 5 24.4
2016-Jun-28 07:27 005 1 gusting 5 24.4
2016-Jun-28 07:22 036 0 gusting 2 24.4
2016-Jun-28 07:17 044 0 gusting 2 24.4
2016-Jun-28 07:12 323 0 gusting 3 24.4
2016-Jun-28 07:07 323 0 gusting 3 23.9
2016-Jun-28 07:02 323 1 gusting 3 23.9
2016-Jun-28 06:57 341 1 gusting 3 23.9
2016-Jun-28 06:52 355 1 gusting 5 23.9
2016-Jun-28 06:47 355 1 gusting 5 23.9
2016-Jun-28 06:42 005 2 gusting 5 24.4
2016-Jun-28 06:37 058 2 gusting 5 24.4
2016-Jun-28 06:32 036 0 gusting 0 24.4
2016-Jun-28 06:27 284 24.4
2016-Jun-28 06:22 284 24.4
2016-Jun-28 06:17 284 0 gusting 5 24.4
2016-Jun-28 06:12 284 1 gusting 5 24.4
2016-Jun-28 06:07 286 0 gusting 5 24.4
2016-Jun-28 06:02 214 24.4
2016-Jun-28 05:57 214 0 gusting 6 23.9
2016-Jun-28 05:52 214 1 gusting 6 23.9
2016-Jun-28 05:47 214 2 gusting 6 23.9
2016-Jun-28 05:42 214 4 gusting 6 23.9
2016-Jun-28 05:37 198 4 gusting 6 23.3
2016-Jun-28 05:32 171 3 gusting 5 23.3
2016-Jun-28 05:27 167 0 gusting 5 23.3
2016-Jun-28 05:22 273 23.3
2016-Jun-28 05:17 273 2 gusting 8 23.3
2016-Jun-28 05:12 273 4 gusting 10 23.3
2016-Jun-28 05:07 275 5 gusting 10 23.3
2016-Jun-28 05:02 286 6 gusting 9 23.3
2016-Jun-28 04:57 287 6 gusting 9 23.3
2016-Jun-28 04:52 323 5 gusting 6 23.3
2016-Jun-28 04:47 306 3 gusting 6 23.3
2016-Jun-28 04:42 320 2 gusting 5 23.3
2016-Jun-28 04:37 324 2 gusting 5 23.9
2016-Jun-28 04:32 286 1 gusting 3 23.9
2016-Jun-28 04:27 304 0 gusting 3 24.4
2016-Jun-28 04:22 205 24.4
2016-Jun-28 04:17 205 24.4
2016-Jun-28 04:12 205 24.4
2016-Jun-28 04:07 205 24.4
2016-Jun-28 04:02 205 24.4
2016-Jun-28 03:57 205 0 gusting 6 24.4
2016-Jun-28 03:52 205 2 gusting 6 24.4
2016-Jun-28 03:47 205 2 gusting 6 24.4
2016-Jun-28 03:42 191 1 gusting 2 24.4
2016-Jun-28 03:37 198 0 gusting 2 24.4
2016-Jun-28 03:32 247 24.4
2016-Jun-28 03:27 246 23.9
2016-Jun-28 03:22 247 1 gusting 4 23.9
2016-Jun-28 03:17 247 2 gusting 4 23.9
2016-Jun-28 03:12 279 1 gusting 2 23.9
2016-Jun-28 03:07 307 24.4
2016-Jun-28 03:02 307 24.4
2016-Jun-28 02:57 307 23.9
2016-Jun-28 02:52 307 0 gusting 3 23.9
2016-Jun-28 02:47 307 0 gusting 3 23.9
2016-Jun-28 02:42 307 0 gusting 5 23.9
2016-Jun-28 02:37 307 1 gusting 5 23.9
2016-Jun-28 02:32 307 2 gusting 5 24.4
2016-Jun-28 02:27 307 1 gusting 5 24.4
2016-Jun-28 02:22 212 0 gusting 1 24.4
2016-Jun-28 02:17 212 24.4
2016-Jun-28 02:12 212 25.0
2016-Jun-28 02:07 212 0 gusting 3 25.0
2016-Jun-28 02:02 212 25.0
2016-Jun-28 01:57 212 25.0
2016-Jun-28 01:52 212 25.0
2016-Jun-28 01:47 212 25.0
2016-Jun-28 01:42 212 0 gusting 3 25.0
2016-Jun-28 01:37 212 1 gusting 3 25.0
2016-Jun-28 01:32 212 1 gusting 3 25.0
2016-Jun-28 01:27 212 0 gusting 3 25.0
2016-Jun-28 01:22 302 25.0
2016-Jun-28 01:17 336 25.0
2016-Jun-28 01:12 336 25.0
2016-Jun-28 01:07 336 25.0
2016-Jun-28 01:02 335 0 gusting 2 25.0
2016-Jun-28 00:57 336 0 gusting 2 25.0
2016-Jun-28 00:52 335 25.0
2016-Jun-28 00:47 336 25.0
2016-Jun-28 00:42 336 25.0
2016-Jun-28 00:37 336 0 gusting 4 25.0
2016-Jun-28 00:32 336 1 gusting 4 25.0
2016-Jun-28 00:27 332 1 gusting 4 25.0
2016-Jun-28 00:22 309 0 gusting 3 25.0
2016-Jun-28 00:17 309 0 gusting 4 25.0
2016-Jun-28 00:12 309 1 gusting 7 25.0
2016-Jun-28 00:07 301 1 gusting 7 25.0
2016-Jun-28 00:02 329 2 gusting 8 25.0
2016-Jun-27 23:57 351 3 gusting 8 25.0
2016-Jun-27 23:52 305 4 gusting 9 25.0
2016-Jun-27 23:47 334 5 gusting 9 25.0
2016-Jun-27 23:42 293 6 gusting 12 25.0
2016-Jun-27 23:37 314 6 gusting 12 25.0
2016-Jun-27 23:32 270 6 gusting 9 25.0
2016-Jun-27 23:27 308 5 gusting 9 25.0
2016-Jun-27 23:22 302 4 gusting 7 25.0
2016-Jun-27 23:17 310 4 gusting 7 25.0
2016-Jun-27 23:12 295 3 gusting 7 25.6
2016-Jun-27 23:07 302 3 gusting 7 25.6
2016-Jun-27 23:02 310 3 gusting 7 25.6
2016-Jun-27 22:57 296 3 gusting 7 25.6
2016-Jun-27 22:52 331 3 gusting 8 25.6
2016-Jun-27 22:47 295 4 gusting 8 25.6
2016-Jun-27 22:42 263 4 gusting 8 25.6
2016-Jun-27 22:37 249 4 gusting 8 26.1
2016-Jun-27 22:32 258 3 gusting 8 26.1
2016-Jun-27 22:27 249 3 gusting 8 26.1
2016-Jun-27 22:22 225 4 gusting 12 26.1
2016-Jun-27 22:17 242 5 gusting 12 26.1
2016-Jun-27 22:12 233 6 gusting 7 26.7
2016-Jun-27 22:07 207 4 gusting 7 26.7
2016-Jun-27 22:02 244 2 gusting 7 26.7
2016-Jun-27 21:57 198 2 gusting 7 27.2
2016-Jun-27 21:52 205 2 gusting 11 27.2
2016-Jun-27 21:47 294 2 gusting 11 27.2
2016-Jun-27 21:42 219 4 gusting 15 27.2
2016-Jun-27 21:37 229 6 gusting 15 27.2
2016-Jun-27 21:32 235 6 gusting 19 27.2
2016-Jun-27 21:27 215 7 gusting 19 27.2
2016-Jun-27 21:22 294 9 gusting 23 27.2
2016-Jun-27 21:17 229 11 gusting 23 27.2
2016-Jun-27 21:12 198 11 gusting 21 27.2
2016-Jun-27 21:07 239 11 gusting 21 27.2
2016-Jun-27 21:02 257 11 gusting 18 27.8
2016-Jun-27 20:57 221 11 gusting 18 27.8
2016-Jun-27 20:52 225 10 gusting 18 28.3
2016-Jun-27 20:47 225 8 gusting 18 28.3
2016-Jun-27 20:42 214 9 gusting 18 28.9
2016-Jun-27 20:37 221 9 gusting 18 28.9
2016-Jun-27 20:32 216 9 gusting 13 29.4
2016-Jun-27 20:27 213 8 gusting 13 29.4
2016-Jun-27 20:22 223 8 gusting 14 30.0
2016-Jun-27 20:07 196 6 gusting 9 31.1
2016-Jun-27 20:02 240 5 gusting 9 31.7
2016-Jun-27 19:57 136 5 gusting 9 31.7
2016-Jun-27 19:17 167 2 gusting 9 34.4
2016-Jun-27 19:12 175 2 gusting 9 35.0
2016-Jun-27 19:07 190 2 gusting 9 35.0
2016-Jun-27 19:02 159 3 gusting 6 35.0
2016-Jun-27 18:37 045 1 gusting 6 36.1
2016-Jun-27 18:32 045 3 gusting 7 36.1
2016-Jun-27 18:22 005 2 gusting 7 36.1
2016-Jun-27 18:17 043 2 gusting 7 36.1
2016-Jun-27 18:12 036 2 gusting 6 36.1
2016-Jun-27 18:07 046 3 gusting 6 36.1
2016-Jun-27 18:02 038 4 gusting 6 36.1
2016-Jun-27 17:42 087 1 gusting 6 36.1
2016-Jun-27 17:37 087 2 gusting 6 36.1
2016-Jun-27 17:27 076 3 gusting 11 36.1
2016-Jun-27 17:22 090 4 gusting 11 36.1
2016-Jun-27 17:17 072 6 gusting 11 36.1
2016-Jun-27 17:12 106 5 gusting 11 36.1
2016-Jun-27 17:02 119 5 gusting 20 36.1
2016-Jun-27 16:47 090 6 gusting 11 36.1
2016-Jun-27 16:42 119 5 gusting 11 36.7
2016-Jun-27 16:27 092 3 gusting 7 36.7
2016-Jun-27 16:17 140 2 gusting 7 36.1
2016-Jun-27 16:12 140 1 gusting 7 36.1
2016-Jun-27 16:07 209 1 gusting 7 36.1
2016-Jun-27 16:02 104 4 gusting 7 35.6
2016-Jun-27 15:57 092 5 gusting 7 35.6
2016-Jun-27 15:52 153 2 gusting 7 36.1
2016-Jun-27 15:47 130 1 gusting 13 36.1
2016-Jun-27 15:37 083 3 gusting 13 36.1
2016-Jun-27 15:32 106 2 gusting 13 36.1
2016-Jun-27 15:22 135 5 gusting 16 35.6
2016-Jun-27 15:12 084 3 gusting 16 35.6
2016-Jun-27 15:07 005 6 gusting 11 35.6
2016-Jun-27 15:02 053 8 gusting 11 35.0
2016-Jun-27 14:57 063 6 gusting 11 35.0
2016-Jun-27 14:52 080 4 gusting 11 35.0
2016-Jun-27 14:47 050 4 gusting 11 35.0
2016-Jun-27 14:42 061 5 gusting 11 35.0
2016-Jun-27 14:37 113 6 gusting 11 35.0
2016-Jun-27 14:32 078 6 gusting 11 35.0
2016-Jun-27 14:27 063 4 gusting 12 34.4
2016-Jun-27 14:22 061 5 gusting 12 34.4